EW6336 Weather Reports


time (UTC)temp
C
wind
direction
speed
KPH
gust
KPH
rain 1hr
cm
rain 24hr
cm
rain mn
cm
humidity
%
barometer
mb
20260504080243 18 225 6.4 12.9 0.00 0.00 0.00 82 1013.1
20260504070243 18 0.0 3.2 0.00 0.00 0.00 87 1012.9
20260504050242 17 0.0 1.6 0.00 0.00 0.00 88 1012.0
20260504045243 17 338 1.6 4.8 0.00 0.00 0.00 88 1011.9
20260504044242 17 113 1.6 4.8 0.00 0.00 0.00 88 1011.7
20260504043302 17 0.0 0.0 0.00 0.00 0.00 87 1011.8
20260504042242 17 0.0 0.0 0.00 0.00 0.00 87 1011.7
20260504041242 17 0.0 3.2 0.00 0.00 0.00 87 1011.6
20260504040302 17 0.0 0.0 0.00 0.00 0.00 87 1011.5
20260504035242 17 225 1.6 3.2 0.00 0.00 0.00 87 1011.8
20260504034242 17 0.0 0.0 0.00 0.00 0.00 87 1012.0
20260504033242 17 0.0 3.2 0.00 0.00 0.00 87 1012.1
20260504032242 17 0.0 0.0 0.00 0.00 0.00 87 1012.1
20260504031302 17 225 1.6 1.6 0.00 0.00 0.00 87 1012.1
20260504030322 17 225 1.6 4.8 0.00 0.00 0.00 87 1012.0
20260504025243 17 225 1.6 4.8 0.00 0.00 0.00 87 1012.1
20260504024305 17 225 3.2 4.8 0.00 0.00 0.00 87 1012.1
20260504023244 18 225 3.2 6.4 0.00 0.00 0.00 87 1012.2
20260504022244 18 270 3.2 9.7 0.00 0.00 0.00 86 1012.3
20260504021244 18 203 1.6 6.4 0.00 0.00 0.00 86 1012.3
20260504020244 18 270 3.2 8.0 0.00 0.00 0.00 86 1012.4
20260504015244 18 225 6.4 14.5 0.00 0.00 0.00 86 1012.5
20260504014244 18 270 3.2 8.0 0.00 0.00 0.00 85 1012.5
20260504013244 18 248 4.8 11.3 0.00 0.00 0.00 85 1012.5
20260504012244 18 225 6.4 16.1 0.00 0.00 0.00 85 1012.6
20260504011244 18 248 4.8 12.9 0.00 0.00 0.00 84 1012.7
20260504010244 18 203 8.0 14.5 0.00 0.00 0.00 84 1012.5
20260504005244 18 225 4.8 11.3 0.00 0.00 0.00 84 1012.6
20260504004244 18 203 6.4 12.9 0.00 0.00 0.00 84 1012.5
20260504003244 18 158 4.8 14.5 0.00 0.00 0.00 84 1012.7
20260504002304 18 270 6.4 14.5 0.00 0.00 0.00 84 1012.8
20260504001244 18 225 4.8 14.5 0.00 0.00 0.00 85 1012.9
20260504000244 18 203 4.8 11.3 0.00 0.00 0.00 86 1013.0
20260503235243 18 203 4.8 12.9 0.00 0.00 0.00 86 1013.0
20260503234243 18 248 4.8 14.5 0.00 0.00 0.00 86 1013.0
20260503233243 18 225 6.4 14.5 0.00 0.00 0.00 86 1012.9
20260503232243 18 225 6.4 17.7 0.00 0.00 0.00 86 1013.0
20260503231243 18 248 4.8 11.3 0.00 0.00 0.00 86 1013.0
20260503230243 18 270 6.4 17.7 0.00 0.00 0.00 86 1013.0
20260503225243 18 225 6.4 11.3 0.00 0.00 0.00 86 1012.9
20260503224243 18 203 3.2 9.7 0.00 0.00 0.00 86 1013.0
20260503223303 18 248 4.8 11.3 0.00 0.00 0.00 86 1013.0
20260503222304 18 248 6.4 12.9 0.00 0.00 0.00 86 1013.0
20260503221243 18 248 4.8 9.7 0.00 0.00 0.00 86 1013.1
20260503220243 18 225 6.4 14.5 0.00 0.00 0.00 86 1013.0
20260503215243 18 203 6.4 14.5 0.00 0.00 0.00 87 1013.0
20260503214243 18 203 4.8 14.5 0.00 0.00 0.00 86 1013.0
20260503213243 18 225 6.4 16.1 0.00 0.00 0.00 86 1012.9
20260503212243 18 203 4.8 9.7 0.00 0.00 0.00 86 1013.0
20260503211242 18 248 8.0 19.3 0.00 0.00 0.00 86 1012.9
20260503210243 18 225 6.4 16.1 0.00 0.00 0.00 85 1012.8
20260503205242 18 225 4.8 11.3 0.00 0.00 0.00 85 1012.7
20260503204243 18 225 8.0 19.3 0.00 0.00 0.00 85 1012.6
20260503203243 18 180 6.4 14.5 0.00 0.00 0.00 84 1012.5
20260503202243 18 248 6.4 14.5 0.00 0.00 0.00 85 1012.4
20260503201423 18 203 8.0 19.3 0.00 0.00 0.00 85 1012.2
20260503200302 18 225 11.3 22.5 0.00 0.00 0.00 85 1012.0
20260503195243 18 225 8.0 17.7 0.00 0.00 0.00 85 1011.8
20260503194243 19 225 4.8 17.7 0.00 0.00 0.00 85 1011.7
20260503193242 19 225 6.4 14.5 0.00 0.00 0.00 84 1011.5
20260503192305 19 248 8.0 17.7 0.00 0.00 0.00 84 1011.4
20260503191242 19 270 6.4 14.5 0.00 0.00 0.00 84 1011.3
20260503190243 19 225 8.0 19.3 0.00 0.00 0.00 84 1011.2
20260503185304 19 270 8.0 19.3 0.00 0.00 0.00 84 1011.1
20260503184323 19 203 12.9 24.1 0.00 0.00 0.00 83 1011.0
20260503183242 19 225 11.3 20.9 0.00 0.00 0.00 82 1011.0
20260503182242 20 225 8.0 19.3 0.00 0.00 0.00 81 1010.9
20260503181242 20 225 8.0 24.1 0.00 0.00 0.00 79 1010.7
20260503180242 20 225 9.7 24.1 0.00 0.00 0.00 78 1010.7
20260503175242 20 225 11.3 20.9 0.00 0.00 0.00 77 1010.7
20260503174242 20 225 8.0 19.3 0.00 0.00 0.00 77 1010.8
20260503173242 20 248 9.7 17.7 0.00 0.00 0.00 78 1010.7
20260503172242 20 203 9.7 20.9 0.00 0.00 0.00 78 1010.8
20260503171242 20 203 6.4 17.7 0.00 0.00 0.00 79 1010.8
20260503170242 20 180 9.7 20.9 0.00 0.00 0.00 80 1010.9
20260503150244 21 203 9.7 20.9 0.00 0.00 0.00 79 1011.9
20260503140244 20 158 8.0 17.7 0.00 0.00 0.00 83 1013.0
20260503131244 19 225 4.8 12.9 0.00 0.00 0.00 83 1013.7
20260503130244 19 270 8.0 14.5 0.00 0.00 0.00 83 1013.9
20260503110243 20 270 3.2 11.3 0.00 0.00 0.00 80 1015.0
20260503100243 18 113 4.8 14.5 0.00 0.00 0.00 88 1015.5
20260503090243 18 225 4.8 11.3 0.00 0.00 0.00 89 1015.3
20260503081303 18 248 4.8 12.9 0.00 0.00 0.00 88 1015.3